SV2BZQ-2 Thessalonik GR current weather conditions

sailwx.info

Wind from 029 at 0 knots gusting 2

Air temperature 7.8° C
Dewpoint 5.7° C

Last reported at 2014-Nov-24 23:41 UTC.
Time now 2014-Nov-25 00:41 UTC

Location: N 40°41' E 022°51'.
View on Google Maps.

See reports from other nearby stations

  
Tides and Currents Weather Stations Pressure Air Temp Water Temp Dewpoint Dewpoint Depression Visibility Wind Speed Wind Dir Waves Ship Positions
date/time (UTC)wind fromknots sea level pressurealtimeterstation pressurevisibilityair tempwater tempwave heightnotes
2014-Nov-24 23:41 029 0 gusting 2 7.8
2014-Nov-24 23:31 028 0 gusting 2 8.3
2014-Nov-24 23:11 071 1 gusting 2 8.3
2014-Nov-24 23:01 012 0 gusting 2 8.3
2014-Nov-24 22:41 038 0 gusting 2 8.3
2014-Nov-24 22:31 056 1 gusting 2 8.3
2014-Nov-24 22:11 052 2 gusting 4 8.3
2014-Nov-24 22:01 012 2 gusting 5 8.9
2014-Nov-24 21:53 024 1 gusting 8 8.3
2014-Nov-24 21:41 012 4 gusting 6 8.9
2014-Nov-24 21:31 350 0 gusting 2 8.9
2014-Nov-24 21:11 303 4 gusting 6 9.4
2014-Nov-24 21:01 315 0 gusting 1 10.0
2014-Nov-24 20:53 056 10.0
2014-Nov-24 20:44 057 10.0
2014-Nov-24 20:31 070 2 gusting 1 10.0
2014-Nov-24 20:11 055 1 gusting 6 10.0
2014-Nov-24 20:01 062 1 gusting 5 10.0
2014-Nov-24 19:52 053 0 gusting 6 10.0
2014-Nov-24 19:41 066 2 gusting 6 10.0
2014-Nov-24 19:31 031 0 gusting 2 10.0
2014-Nov-24 19:11 348 9.4
2014-Nov-24 19:01 306 0 9.4
2014-Nov-24 18:52 306 2 gusting 5 9.4
2014-Nov-24 18:41 306 1 gusting 4 9.4
2014-Nov-24 18:31 313 1 gusting 2 9.4
2014-Nov-24 18:11 321 10.0
2014-Nov-24 18:01 321 10.0
2014-Nov-24 17:51 321 10.0
2014-Nov-24 17:41 321 10.0
2014-Nov-24 17:31 321 0 gusting 1 10.0
2014-Nov-24 17:11 323 1 gusting 4 10.0
2014-Nov-24 17:01 316 2 gusting 4 10.0
2014-Nov-24 16:51 314 2 gusting 4 10.0
2014-Nov-24 16:50 313 2 gusting 5 10.0
2014-Nov-24 16:41 304 0 gusting 2 10.0
2014-Nov-24 16:31 303 10.0
2014-Nov-24 16:11 297 0 gusting 2 10.0
2014-Nov-24 16:01 306 1 gusting 2 10.0
2014-Nov-24 15:51 307 2 gusting 4 10.0
2014-Nov-24 15:50 309 3 gusting 6 10.0
2014-Nov-24 15:41 317 1 gusting 2 10.6
2014-Nov-24 15:31 305 1 gusting 2 10.6
2014-Nov-24 15:11 307 4 gusting 4 10.6
2014-Nov-24 15:01 302 2 gusting 6 11.1
2014-Nov-24 14:51 290 2 gusting 4 11.1
2014-Nov-24 14:49 288 2 gusting 6 11.1
2014-Nov-24 14:34 301 1 gusting 5 11.1
2014-Nov-24 14:11 292 2 gusting 4 12.2
2014-Nov-24 14:04 302 2 gusting 7 11.7
2014-Nov-24 13:51 303 1 gusting 2 12.2
2014-Nov-24 13:50 304 2 gusting 7 12.2
2014-Nov-24 13:41 308 1 gusting 4 12.2
2014-Nov-24 13:34 284 2 gusting 7 12.2
2014-Nov-24 13:18 275 2 gusting 6 12.2
2014-Nov-24 13:03 286 3 gusting 6 12.2
2014-Nov-24 12:51 277 2 gusting 6 12.8
2014-Nov-24 12:48 287 1 gusting 6 12.2
2014-Nov-24 12:33 341 3 gusting 6 12.2
2014-Nov-24 12:18 320 1 gusting 6 12.2
2014-Nov-24 12:04 286 2 gusting 7 12.2
2014-Nov-24 11:51 290 4 gusting 6 12.2
2014-Nov-24 11:49 273 2 gusting 6 12.2
2014-Nov-24 11:32 273 1 gusting 6 12.2
2014-Nov-24 11:17 275 4 gusting 6 11.7
2014-Nov-24 11:02 292 1 gusting 9 11.7
2014-Nov-24 10:51 300 4 gusting 6 11.7
2014-Nov-24 10:47 280 4 gusting 7 11.1
2014-Nov-24 10:32 276 3 gusting 8 11.1
2014-Nov-24 10:17 302 5 gusting 8 10.6
2014-Nov-24 10:01 326 6 gusting 7 10.6
2014-Nov-24 09:51 285 2 gusting 5 10.6
2014-Nov-24 09:46 292 3 gusting 8 10.0
2014-Nov-24 09:31 301 4 gusting 6 10.0
2014-Nov-24 09:16 329 3 gusting 8 9.4
2014-Nov-24 09:01 323 2 gusting 6 9.4
2014-Nov-24 08:51 292 5 gusting 6 8.9
2014-Nov-24 08:45 279 2 gusting 8 8.9
2014-Nov-24 08:31 328 4 gusting 10 8.9
2014-Nov-24 08:15 323 4 gusting 9 7.8
2014-Nov-24 08:01 295 4 gusting 8 7.8
2014-Nov-24 07:51 309 6 gusting 8 7.2
2014-Nov-24 07:45 342 6 gusting 10 6.7
2014-Nov-24 07:31 320 2 gusting 6 6.7
2014-Nov-24 07:14 308 5 gusting 8 6.1
2014-Nov-24 07:01 309 6 gusting 8 6.1
2014-Nov-24 06:59 292 4 gusting 8 5.6
2014-Nov-24 06:51 324 5 gusting 7 5.6
2014-Nov-24 06:44 313 4 gusting 7 5.0
2014-Nov-24 06:31 318 4 gusting 6 5.0
2014-Nov-24 06:14 313 3 gusting 7 5.0
2014-Nov-24 06:01 320 4 gusting 6 4.4
2014-Nov-24 05:58 319 4 gusting 6 4.4
2014-Nov-24 05:51 305 2 gusting 6 4.4
2014-Nov-24 05:43 300 2 gusting 6 4.4
2014-Nov-24 05:31 302 1 gusting 6 4.4
2014-Nov-24 05:13 313 4 gusting 6 4.4
2014-Nov-24 05:01 301 1 gusting 4 4.4
2014-Nov-24 04:58 307 2 gusting 5 4.4
2014-Nov-24 04:51 301 2 gusting 2 5.0
2014-Nov-24 04:43 300 2 gusting 6 4.4
2014-Nov-24 04:31 304 2 gusting 2 5.0
2014-Nov-24 04:13 306 1 gusting 5 4.4
2014-Nov-24 04:01 303 1 gusting 2 5.0
2014-Nov-24 03:57 303 1 gusting 5 4.4
2014-Nov-24 03:51 303 5.0
2014-Nov-24 03:42 304 0 gusting 2 4.4
2014-Nov-24 03:31 303 5.0
2014-Nov-24 03:12 303 0 gusting 3 5.0
2014-Nov-24 03:01 312 2 gusting 4 5.0
2014-Nov-24 02:42 300 3 gusting 5 5.0
2014-Nov-24 02:31 305 2 gusting 4 5.6
2014-Nov-24 02:11 313 2 gusting 4 5.6
2014-Nov-24 02:01 308 2 gusting 4 5.6
2014-Nov-24 01:56 306 2 gusting 5 5.0
2014-Nov-24 01:41 297 2 gusting 4 5.6
2014-Nov-24 01:31 306 1 gusting 4 5.6
2014-Nov-24 01:12 310 0 gusting 5 5.6
2014-Nov-24 01:01 312 2 gusting 2 5.6
2014-Nov-24 00:41 292 2 gusting 4 5.6
2014-Nov-24 00:31 301 2 gusting 4 5.6
2014-Nov-24 00:11 302 4 gusting 6 5.6
2014-Nov-24 00:01 314 2 gusting 4 5.6
2014-Nov-23 23:41 306 0 gusting 2 6.1
2014-Nov-23 23:31 311 1 gusting 2 6.1
2014-Nov-23 23:11 299 0 gusting 2 6.1
2014-Nov-23 23:01 306 2 gusting 4 6.1
2014-Nov-23 22:54 299 2 gusting 5 6.1
2014-Nov-23 22:41 302 6 gusting 7 6.7
2014-Nov-23 22:31 300 5 gusting 6 6.7
2014-Nov-23 22:11 300 2 gusting 6 6.7
2014-Nov-23 22:01 293 2 gusting 2 7.2
2014-Nov-23 21:54 303 2 gusting 6 7.2
2014-Nov-23 21:41 315 4 gusting 6 7.8
2014-Nov-23 21:31 337 1 gusting 4 8.3
2014-Nov-23 21:11 047 8.9
2014-Nov-23 21:01 047 0 gusting 2 8.9
2014-Nov-23 20:53 048 1 gusting 5 8.3
2014-Nov-23 20:41 043 0 gusting 4 8.9
2014-Nov-23 20:31 061 1 gusting 2 8.9
2014-Nov-23 20:11 061 5 gusting 6 8.9
2014-Nov-23 20:01 061 2 gusting 4 8.9
2014-Nov-23 19:53 067 1 gusting 6 8.9
2014-Nov-23 19:41 043 1 gusting 6 9.4
2014-Nov-23 19:31 062 1 gusting 6 9.4
2014-Nov-23 19:11 049 5 gusting 7 9.4
2014-Nov-23 19:01 054 4 gusting 6 9.4
2014-Nov-23 18:52 044 3 gusting 7 8.9
2014-Nov-23 18:41 064 5 gusting 5 9.4
2014-Nov-23 18:31 061 4 gusting 6 9.4
2014-Nov-23 18:11 046 1 gusting 6 9.4
2014-Nov-23 18:01 064 2 gusting 5 9.4
2014-Nov-23 17:52 042 3 gusting 8 9.4
2014-Nov-23 17:41 049 4 gusting 7 9.4
2014-Nov-23 17:31 042 1 gusting 10 9.4
2014-Nov-23 17:11 047 1 gusting 8 10.0
2014-Nov-23 17:01 063 2 gusting 6 10.0
2014-Nov-23 16:51 056 1 gusting 6 10.6
2014-Nov-23 16:41 032 2 gusting 8 10.6
2014-Nov-23 16:31 041 4 gusting 10 10.6
2014-Nov-23 16:11 014 1 gusting 2 11.1
2014-Nov-23 16:01 286 11.1
2014-Nov-23 15:52 284 11.1
2014-Nov-23 15:41 284 11.7
2014-Nov-23 15:31 284 11.7
2014-Nov-23 15:11 283 12.2
2014-Nov-23 15:01 283 12.2
2014-Nov-23 14:51 283 0 gusting 2 12.2
2014-Nov-23 14:41 282 12.8
2014-Nov-23 14:31 281 0 gusting 2 12.8
2014-Nov-23 14:11 281 0 gusting 2 12.8
2014-Nov-23 14:01 282 0 gusting 5 12.8
2014-Nov-23 13:49 283 3 gusting 6 12.8
2014-Nov-23 13:34 265 0 gusting 3 12.8
2014-Nov-23 13:19 265 2 gusting 6 12.8
2014-Nov-23 13:01 293 2 gusting 6 12.8
2014-Nov-23 12:49 261 3 gusting 6 12.8
2014-Nov-23 12:34 288 3 gusting 6 12.8
2014-Nov-23 12:19 290 1 gusting 7 12.8
2014-Nov-23 12:03 273 3 gusting 6 12.8
2014-Nov-23 11:51 278 2 gusting 2 12.8
2014-Nov-23 11:48 275 2 gusting 7 12.2
2014-Nov-23 11:33 292 3 gusting 9 12.2
2014-Nov-23 11:19 290 4 gusting 9 12.2
2014-Nov-23 11:04 311 4 gusting 6 12.2
2014-Nov-23 10:51 276 4 gusting 6 12.2
2014-Nov-23 10:47 300 3 gusting 7 11.7
2014-Nov-23 10:32 286 1 gusting 8 11.7
2014-Nov-23 10:17 290 4 gusting 9 11.1
2014-Nov-23 10:02 303 6 gusting 9 10.6
2014-Nov-23 09:47 323 3 gusting 9 10.6
2014-Nov-23 09:32 318 4 gusting 9 10.0
2014-Nov-23 09:17 309 4 gusting 8 10.0
2014-Nov-23 09:02 288 2 gusting 8 9.4
2014-Nov-23 08:51 296 5 gusting 6 10.0
2014-Nov-23 08:46 299 2 gusting 6 9.4
2014-Nov-23 08:32 271 1 gusting 5 8.9
2014-Nov-23 08:16 287 1 gusting 9 8.3
2014-Nov-23 08:01 307 5 gusting 7 8.3
2014-Nov-23 07:51 307 4 gusting 6 7.8
2014-Nov-23 07:45 303 5 gusting 8 7.2
2014-Nov-23 07:31 303 1 gusting 5 7.8
2014-Nov-23 07:15 334 2 gusting 5 6.7
2014-Nov-23 07:01 337 2 gusting 6 6.1
2014-Nov-23 06:51 320 0 gusting 5 6.1
2014-Nov-23 06:45 310 2 gusting 6 5.6
2014-Nov-23 06:31 319 1 gusting 2 5.0
2014-Nov-23 06:14 331 3 gusting 7 4.4
2014-Nov-23 06:01 322 4 gusting 6 4.4
2014-Nov-23 05:45 315 3 gusting 9 3.9
2014-Nov-23 05:31 309 2 gusting 6 4.4
2014-Nov-23 05:13 335 2 gusting 6 3.9
2014-Nov-23 05:02 308 2 gusting 11 3.9
2014-Nov-23 04:59 299 3 gusting 6 3.9
2014-Nov-23 04:51 320 2 gusting 6 3.9
2014-Nov-23 04:43 291 3 gusting 6 3.3
2014-Nov-23 04:31 319 5 gusting 6 3.3
2014-Nov-23 04:14 296 2 gusting 7 3.3
2014-Nov-23 04:01 335 2 gusting 4 4.4
2014-Nov-23 03:42 290 6 gusting 8 4.4
2014-Nov-23 03:31 292 4 gusting 6 5.0
2014-Nov-23 03:12 308 2 gusting 6 5.6
2014-Nov-23 03:01 308 2 gusting 2 6.1
2014-Nov-23 02:57 303 3 gusting 6 5.6
2014-Nov-23 02:51 309 4 gusting 6 6.1
2014-Nov-23 02:42 308 1 gusting 5 6.1
2014-Nov-23 02:31 299 4 gusting 6 6.1
2014-Nov-23 02:12 331 3 gusting 6 5.6
2014-Nov-23 02:01 316 2 gusting 5 5.6
2014-Nov-23 01:57 326 2 gusting 5 5.6
2014-Nov-23 01:51 311 0 gusting 1 5.6
2014-Nov-23 01:41 310 0 gusting 1 5.6
2014-Nov-23 01:31 309 0 gusting 1 5.6
2014-Nov-23 01:11 321 5.6
2014-Nov-23 01:01 321 5.6
2014-Nov-23 00:57 321 5.6
2014-Nov-23 00:51 321 5.6
2014-Nov-23 00:41 321 5.6
2014-Nov-23 00:31 321 5.6
2014-Nov-23 00:11 321 0 gusting 1 5.6
2014-Nov-23 00:01 321 0 gusting 2 5.6